| time (UTC) | temp F | wind direction | speed MPH | gust MPH | rain 1hr in | rain 24hr in | rain mn in | humidity % | barometer mb |
| 20260505230050 | 65 | 248 | 12.0 | 18.0 | 0.01 | 0.03 | 0.03 | 65 | 1015.2 |
| 20260505224551 | 65 | 263 | 10.0 | 19.0 | 0.01 | 0.03 | 0.03 | 63 | 1015.3 |
| 20260505223053 | 66 | 215 | 10.0 | 20.0 | 0.01 | 0.03 | 0.03 | 63 | 1015.5 |
| 20260505221551 | 66 | 268 | 7.0 | 16.0 | 0.00 | 0.02 | 0.02 | 62 | 1015.5 |
| 20260505220103 | 66 | 257 | 9.0 | 18.0 | 0.00 | 0.02 | 0.02 | 63 | 1015.7 |
| 20260505214602 | 67 | 231 | 8.0 | 16.0 | 0.00 | 0.02 | 0.02 | 63 | 1015.8 |
| 20260505213102 | 65 | 227 | 10.0 | 15.0 | 0.00 | 0.02 | 0.02 | 62 | 1015.9 |
| 20260505211557 | 66 | 284 | 9.0 | 18.0 | 0.00 | 0.02 | 0.02 | 61 | 1015.9 |
| 20260505210048 | 66 | 215 | 9.0 | 17.0 | 0.00 | 0.02 | 0.02 | 62 | 1016.1 |
| 20260505204549 | 66 | 234 | 9.0 | 19.0 | 0.00 | 0.02 | 0.02 | 62 | 1016.1 |
| 20260505203056 | 65 | 246 | 10.0 | 19.0 | 0.00 | 0.02 | 0.02 | 64 | 1016.2 |
| 20260505201549 | 66 | 277 | 8.0 | 18.0 | 0.00 | 0.02 | 0.02 | 64 | 1016.2 |
| 20260505200054 | 65 | 238 | 10.0 | 17.0 | 0.00 | 0.02 | 0.02 | 67 | 1016.2 |
| 20260505194556 | 65 | 225 | 8.0 | 16.0 | 0.00 | 0.02 | 0.02 | 69 | 1016.2 |
| 20260505193057 | 66 | 234 | 7.0 | 14.0 | 0.00 | 0.02 | 0.02 | 66 | 1016.2 |
| 20260505191559 | 65 | 225 | 9.0 | 17.0 | 0.00 | 0.02 | 0.02 | 66 | 1016.4 |
| 20260505190053 | 65 | 261 | 6.0 | 14.0 | 0.00 | 0.02 | 0.02 | 65 | 1016.4 |
| 20260505184602 | 65 | 240 | 7.0 | 13.0 | 0.00 | 0.02 | 0.02 | 65 | 1016.4 |
| 20260505183057 | 65 | 274 | 8.0 | 15.0 | 0.00 | 0.02 | 0.02 | 62 | 1016.4 |
| 20260505181554 | 64 | 257 | 6.0 | 16.0 | 0.00 | 0.02 | 0.02 | 70 | 1016.5 |
| 20260505174611 | 64 | 360 | 6.0 | 12.0 | 0.00 | 0.02 | 0.02 | 71 | 1016.1 |
| 20260505173052 | 63 | 262 | 6.0 | 12.0 | 0.00 | 0.02 | 0.02 | 68 | 1016.0 |
| 20260505171551 | 63 | 272 | 5.0 | 11.0 | 0.01 | 0.02 | 0.02 | 71 | 1015.9 |
| 20260505170136 | 62 | 237 | 4.0 | 13.0 | 0.01 | 0.02 | 0.02 | 73 | 1015.7 |
| 20260505164552 | 61 | 227 | 6.0 | 11.0 | 0.01 | 0.02 | 0.02 | 75 | 1015.6 |
| 20260505163055 | 61 | 360 | 3.0 | 10.0 | 0.01 | 0.02 | 0.02 | 76 | 1015.5 |
| 20260505161601 | 61 | 250 | 3.0 | 9.0 | 0.00 | 0.01 | 0.01 | 78 | 1015.3 |
| 20260505153059 | 59 | 290 | 3.0 | 7.0 | 0.00 | 0.01 | 0.01 | 84 | 1015.2 |
| 20260505151553 | 58 | 292 | 1.0 | 3.0 | 0.00 | 0.01 | 0.01 | 86 | 1015.1 |
| 20260505124554 | 56 | 0 | 0.0 | 3.0 | 0.00 | 0.02 | 0.01 | 88 | 1013.8 |
| 20260505123112 | 56 | 0 | 0.0 | 3.0 | 0.01 | 0.02 | 0.01 | 88 | 1013.8 |
| 20260505121556 | 57 | 0 | 1.0 | 6.0 | 0.01 | 0.02 | 0.01 | 88 | 1013.8 |
| 20260505120055 | 57 | 309 | 1.0 | 8.0 | 0.01 | 0.02 | 0.01 | 88 | 1013.6 |
| 20260505114612 | 57 | 0 | 1.0 | 5.0 | 0.01 | 0.02 | 0.01 | 88 | 1013.7 |
| 20260505113056 | 57 | 248 | 2.0 | 5.0 | 0.00 | 0.01 | 0.00 | 88 | 1013.6 |
| 20260505111605 | 56 | 0 | 0.0 | 0.0 | 0.00 | 0.01 | 0.00 | 88 | 1013.6 |
| 20260505101554 | 57 | 257 | 1.0 | 3.0 | 0.00 | 0.01 | 0.00 | 86 | 1014.0 |
| 20260505100055 | 57 | 0 | 0.0 | 3.0 | 0.00 | 0.01 | 0.00 | 85 | 1014.1 |
| 20260505094551 | 57 | 260 | 1.0 | 4.0 | 0.00 | 0.01 | 0.00 | 85 | 1014.0 |
| 20260505093053 | 57 | 0 | 0.0 | 6.0 | 0.00 | 0.01 | 0.00 | 83 | 1014.1 |
| 20260505091547 | 58 | 0 | 0.0 | 6.0 | 0.00 | 0.01 | 0.00 | 83 | 1014.2 |
| 20260505090055 | 58 | 296 | 2.0 | 7.0 | 0.00 | 0.01 | 0.00 | 83 | 1014.3 |
| 20260505084557 | 57 | 0 | 0.0 | 1.0 | 0.00 | 0.01 | 0.00 | 83 | 1014.4 |
| 20260505083105 | 57 | 0 | 0.0 | 1.0 | 0.00 | 0.01 | 0.00 | 83 | 1014.6 |
| 20260505081555 | 57 | 0 | 0.0 | 4.0 | 0.00 | 0.01 | 0.00 | 82 | 1014.8 |
| 20260505080051 | 57 | 251 | 2.0 | 8.0 | 0.00 | 0.01 | 0.00 | 83 | 1014.9 |
| 20260505074550 | 58 | 277 | 1.0 | 7.0 | 0.00 | 0.01 | 0.00 | 79 | 1014.9 |
| 20260505073108 | 57 | 255 | 2.0 | 8.0 | 0.00 | 0.01 | 0.00 | 83 | 1015.1 |
| 20260505071553 | 59 | 259 | 3.0 | 8.0 | 0.00 | 0.01 | 0.00 | 84 | 1015.1 |
| 20260505070055 | 59 | 277 | 2.0 | 10.0 | 0.00 | 0.01 | 0.00 | 83 | 1015.1 |
| 20260505064602 | 59 | 0 | 1.0 | 6.0 | 0.00 | 0.01 | 0.01 | 82 | 1015.4 |
| 20260505063055 | 59 | 0 | 1.0 | 4.0 | 0.00 | 0.01 | 0.01 | 82 | 1015.3 |
| 20260505061553 | 59 | 271 | 2.0 | 6.0 | 0.00 | 0.01 | 0.01 | 82 | 1015.3 |
| 20260505054604 | 59 | 0 | 1.0 | 8.0 | 0.00 | 0.01 | 0.01 | 82 | 1015.6 |
| 20260505053112 | 59 | 250 | 2.0 | 11.0 | 0.00 | 0.01 | 0.01 | 82 | 1015.7 |
| 20260505051555 | 60 | 261 | 6.0 | 13.0 | 0.00 | 0.01 | 0.01 | 82 | 1015.8 |
| 20260505041612 | 61 | 231 | 7.0 | 13.0 | 0.00 | 0.01 | 0.01 | 78 | 1015.7 |
| 20260505040057 | 61 | 360 | 5.0 | 11.0 | 0.00 | 0.01 | 0.01 | 77 | 1015.6 |
| 20260505034548 | 61 | 269 | 2.0 | 7.0 | 0.00 | 0.01 | 0.01 | 79 | 1015.6 |
| 20260505033054 | 61 | 288 | 4.0 | 8.0 | 0.00 | 0.01 | 0.01 | 78 | 1015.5 |
| 20260505031600 | 61 | 279 | 4.0 | 10.0 | 0.00 | 0.01 | 0.01 | 77 | 1015.4 |
| 20260505030052 | 61 | 246 | 5.0 | 10.0 | 0.00 | 0.01 | 0.01 | 76 | 1015.2 |
| 20260505024558 | 61 | 260 | 4.0 | 9.0 | 0.00 | 0.01 | 0.01 | 76 | 1015.0 |
| 20260505023102 | 62 | 264 | 3.0 | 9.0 | 0.00 | 0.01 | 0.01 | 76 | 1015.2 |
| 20260505021555 | 62 | 360 | 4.0 | 11.0 | 0.00 | 0.01 | 0.01 | 75 | 1015.3 |
| 20260505020052 | 62 | 257 | 6.0 | 12.0 | 0.00 | 0.01 | 0.01 | 76 | 1015.2 |
| 20260505014556 | 63 | 248 | 6.0 | 11.0 | 0.00 | 0.01 | 0.01 | 75 | 1015.2 |
| 20260505013101 | 63 | 250 | 6.0 | 12.0 | 0.00 | 0.01 | 0.01 | 74 | 1015.4 |
| 20260505011557 | 63 | 249 | 7.0 | 13.0 | 0.00 | 0.01 | 0.01 | 73 | 1015.2 |
| 20260505010050 | 64 | 254 | 8.0 | 15.0 | 0.00 | 0.01 | 0.01 | 72 | 1015.3 |
| 20260505004552 | 64 | 246 | 8.0 | 15.0 | 0.00 | 0.01 | 0.01 | 70 | 1015.4 |
| 20260505003056 | 66 | 260 | 6.0 | 16.0 | 0.00 | 0.01 | 0.01 | 68 | 1015.4 |
| 20260505001553 | 66 | 360 | 8.0 | 14.0 | 0.00 | 0.01 | 0.01 | 67 | 1015.4 |
| 20260505000058 | 65 | 238 | 8.0 | 14.0 | 0.00 | 0.01 | 0.01 | 67 | 1015.4 |
| 20260504234602 | 65 | 284 | 6.0 | 16.0 | 0.00 | 0.01 | 0.01 | 69 | 1015.3 |
| 20260504233051 | 64 | 360 | 8.0 | 14.0 | 0.00 | 0.01 | 0.01 | 70 | 1015.4 |
| 20260504231601 | 65 | 259 | 6.0 | 15.0 | 0.00 | 0.01 | 0.01 | 67 | 1015.5 |